User: anonymous   Login
Location: Deer Lodge Site
(39.6809°N, 119.9392°W)
Time: 23:09:03
(UTC-07:00)
Language:

CZ-4C R/B - Orbit

View from above orbital plane
View from above orbital plane
View from above satellite
View from above satellite

Ground track
Ground track

The orbit data is extracted from the following two-line orbital elements,

1 36416U 10009D   15208.73267229 -.00000095  00000-0  12877-5 0  9999
2 36416 063.4474 314.4072 0319093 358.6097 001.4023 13.69470953269817
Epoch (UTC): 27 July 2015 17:35:02
Eccentricity: 0.0319093
inclination: 63.4474°
perigee height: 766 km
apogee height: 1237 km
right ascension of ascending node: 314.4072°
argument of perigee: 358.6097°
revolutions per day: 13.69470953
mean anomaly at epoch: 1.4023°
orbit number at epoch: 26981

The dashed part of the orbit path shows where the satellite is in the earth's shadow,  

DLR